www.pogodaiklimat.ru

Погода и климат >> Архив погоды >> Иран >> Ferdous


ПОГОДА в Ferdous

  • Прогноз погоды в Ferdous
  • Монитор погоды в Ferdous
  • Климат города

АРХИВ ПОГОДЫ в Ferdous

Время (UTC), дата Ветер
(напр.,м/с)
 
Видим.   Явления Облачность Т
(С)
Тd
(С)
f
(%)
Тe
(С)
Тes
(С)
Комфортность P
(гПа)
Po
(гПа)
Тmin
(С)
Tmax
(С)
R
(мм)
R24
(мм)
S
(см)
12 11.12 З 4 15 км ясно +9.4 -11.9 21 +7 +8 1020.6 872.6
15 11.12 штиль 0 15 км ясно +5.0 -12.9 26 +5 +5 1022.7 873.0 +10.2
18 11.12 Ю 4 20 км ясно +2.9 -13.0 30 -1 -1 1020.5 872.6
21 11.12 СВ 2 20 км ясно +1.4 -12.9 34 -1 -1 1019.7 872.5
00 12.12 штиль 0 20 км ясно -0.8 -12.8 40 -1 -1 1020.8 872.9
03 12.12 штиль 0 20 км 3/0
[Ci fib]
-2.1 -13.1 43 -2 -2 1024.1 874.2 -2.6
06 12.12 З 4 20 км 1/0
[Ci fib]
+4.7 -11.4 30 +2 +4 1025.3 876.5
09 12.12 З 7 20 км 1/0
[Ci fib]
+10.2 -11.4 21 +7 +9 1022.5 875.1
12 12.12 СЗ 6 20 км 1/0
[Ci fib]
+9.2 -12.1 21 +6 +7 1023.9 875.5
15 12.12 С 2 20 км ясно +5.3 -12.2 27 +4 +4 1026.5 876.5 +10.5
18 12.12 штиль 0 15 км ясно +0.8 -13.1 35 +1 +1 1026.4 876.9
21 12.12 штиль 0 15 км 3/0
[Ci fib]
+1.0 -13.0 34 +1 +1 1024.0 876.2
00 13.12 штиль 0 18 км ясно -0.8 -13.1 39 -1 -1 1023.7 875.4
03 13.12 штиль 0 15 км 3/0
[Ci fib]
-1.8 -12.7 43 -2 -2 1025.2 875.4 -2.0
06 13.12 СВ 2 15 км 4/1 1050 м
[Sc Ac trans]
+3.4 -11.6 32 +2 +4 1026.5 876.7
09 13.12 З 5 15 км ясно +7.1 -6.3 38 +4 +7 1022.9 874.7
12 13.12 З 4 15 км 8/4 1050 м
[Sc Ac trans Ci fib]
+7.1 -7.2 35 +4 +5 1022.2 873.6
15 13.12 СЗ 5 10 км 8/4 1050 м
[Sc Ac As]
+4.6 -4.8 50 0 0 1024.1 874.4 +8.2
18 13.12 СВ 3 10 км 9/5 1050 м
[Sc diur, vesp As op]
+3.6 -2.8 63 0 0 1022.4 874.3
21 13.12 штиль 0 10 км 8/4 1050 м
[Sc diur, vesp As op]
+2.9 -3.9 61 +2 +2 1021.0 873.6
03 14.12 С 3 15 км 3/0
[Ci fib]
-1.9 -7.1 68 -7 -7 1024.2 874.4 -1.9
06 14.12 Ю 2 12 км 5/1 1050 м
[Sc Ac trans]
+4.6 -4.1 53 +3 +5 1024.4 876.0
09 14.12 В 2 18 км 9/1 1050 м
[Sc Ac trans Ci sp]
+8.2 -5.7 37 +7 +10 1021.9 874.5
12 14.12 З 4 18 км 9/3 1050 м
[Sc Ac trans Ci sp]
+7.9 -6.1 36 +5 +6 1021.6 873.6
15 14.12 штиль 0 15 км 9/3 1050 м
[Sc Ac trans Ci sp]
+6.7 -6.4 39 +7 +7 1023.0 873.9 +9.5
18 14.12 штиль 0 12 км 9/3 1050 м
[Sc As trans]
+6.2 -6.5 40 +6 +6 1021.0 873.6
21 14.12 штиль 0 12 км 10/3 1050 м
[Sc As op]
+5.2 -6.2 44 +5 +5 1019.2 872.8
00 15.12 В 2 12 км 10/3 1050 м
[Sc As op]
+4.6 -7.0 43 +3 +3 1018.8 872.2
03 15.12 штиль 0 12 км 9/3 1050 м
[Sc Ac trans]
+3.9 -7.3 44 +4 +4 1019.9 872.7 +3.9
06 15.12 Ю 3 15 км 3/0
[Ac trans]
+9.3 -8.1 28 +8 +10 1020.7 874.5
09 15.12 Ю 4 15 км 1/0
[Ci fib]
+12.2 -10.4 20 +11 +15 1018.2 872.8
12 15.12 СЗ 5 15 км 1/0
[Ci fib]
+11.6 -7.6 25 +10 +10 1018.3 872.7
15 15.12 штиль 0 15 км 1/0
[Ac trans]
+7.3 -8.5 32 +7 +7 1021.2 873.9 +13.9
18 15.12 В 3 15 км ясно +4.9 -10.9 31 +2 +2 1020.8 874.3
21 15.12 В 3 15 км ясно +3.3 -11.7 32 0 0 1020.4 873.9
00 16.12 В 3 15 км ясно +2.2 -12.2 34 -1 -1 1020.8 874.1
03 16.12 В 4 15 км 3/0
[Ci fib]
+2.6 -11.9 33 -1 -1 1023.0 875.1 +1.7
06 16.12 В 3 15 км 3/0
[Ci fib]
+10.7 -10.5 21 +10 +13 1024.1 877.4
09 16.12 штиль 0 15 км 3/0
[Ci fib]
+13.3 -9.2 20 +13 +21 1022.1 875.9
12 16.12 Ю 4 15 км 3/0
[Ci fib]
+13.5 -9.8 19 +12 +13 1021.6 875.3
15 16.12 штиль 0 15 км 1/0
[Ci fib]
+7.2 -11.0 26 +7 +7 1024.7 876.5 +15.4
18 16.12 СВ 3 15 км ясно +4.5 -12.7 27 +2 +2 1023.8 877.1
21 16.12 З 2 15 км ясно +2.8 -12.6 31 +1 +1 1022.8 876.7
00 17.12 СВ 3 15 км ясно +2.5 -11.4 35 -1 -1 1023.0 876.6
03 17.12 СВ 4 15 км ясно +2.2 -10.4 39 -2 -2 1025.5 877.0 +1.3
06 17.12 ЮВ 2 18 км ясно +11.8 -6.9 26 +11 +15 1025.0 878.4
09 17.12 штиль 0 15 км 1/0
[Ci fib]
+15.5 -4.3 25 +16 +23 1022.1 876.5
12 17.12 СЗ 4 15 км 3/3 1050 м
[Sc]
+14.9 -4.8 25 +14 +14 1021.6 875.8
15 17.12 штиль 0 15 км ясно +9.0 -6.0 34 +9 +9 1024.5 876.8 +15.9
18 17.12 СВ 3 15 км ясно +6.9 -5.0 42 +5 +5 1022.6 877.0
21 17.12 В 3 18 км ясно +4.9 -5.3 48 +2 +2 1021.7 876.8
00 18.12 В 3 18 км ясно +3.5 -5.7 51 0 0 1022.3 876.6
03 18.12 СВ 4 20 км ясно +2.8 -5.8 53 -1 -1 1024.9 877.3 +1.6
06 18.12 ЮВ 4 20 км ясно +11.9 -4.2 32 +10 +13 1024.5 878.6
09 18.12 ЮВ 2 20 км ясно +16.1 -4.3 24 +16 +22 1021.5 876.6

 

Местоположение метеостанции Ferdous (Иран): широта 34.02 долгота 58.17 высота над уровнем моря 1293 м.

В архиве по умолчанию представлена погода в Ferdous за последнюю неделю. Архивные данные за месяц целиком и за предыдущие месяцы, начиная с января 2011 года, Вы можете получить, выбрав интересующий диапазон дат из раскрывающегося списка и нажав кнопку "Ввод!".

Внимание! Время в таблицах - всемирное. Для получения местного времени необходимо прибавить поправку, которая в Ferdous равна 3.5 ч.

Смотрите также архив погоды в соседних городах и на ближайших метеорологических станциях:

Погода в Tabas (Иран) (125 км)
Погода в Kashmar (Иран) (134 км)
Погода в Birjand (Иран) (160 км)
Погода в Torbat-Heydarieh (Иран) (169 км)
Погода в Sabzevar (Иран) (249 км)
Погода в Mashhad (Иран) (283 км)
Погода в Khor (Иран) (287 км)
Погода в Nehbandan (Иран) (327 км)
Погода в Quchan (Иран) (341 км)
Погода в Herat (Афганистан) (374 км)

Пояснения к столбцам:

Ветер - указаны скорость ветра в м/с - средняя за 10 мин, порывы в срок и между сроками (в фигурных скобках) и направление, откуда дует ветер: С - северный, СВ - северо-восточный, В - восточный, ЮВ - юго-восточный, Ю - южный, ЮЗ - юго-западный, З - западный, СЗ - северо-западный.
Видимость - горизонтальная дальность видимости в метрах или километрах. При видимости от 1 до 10 км при отсутствии осадков обычно наблюдается дымка, при ухудшении видимости до 1 км и менее - туман. В сухую погоду видимость может ухудшаться дымом, пылью или мглою.
Явления - указаны атмосферные явления, наблюдавшиеся в срок или в последний час перед сроком; фигурными скобками обозначены явления, наблюдавшиеся между сроками (за 1-3 часа до срока); квадратными скобками обозначены град или гололедные отложения с указанием их диаметра в мм.
Облачность - указаны через наклонную черту общая и нижняя облачность в баллах и высота нижней границы облаков в метрах; квадратными скобками обозначены формы облаков: Ci - перистые, Cs - перисто-слоистые, Cc - перисто-кучевые, Ac - высококучевые, As - высокослоистые, Sc - слоисто-кучевые, Ns - слоисто-дождевые, Cu - кучевые, Cb - кучево-дождевые. Подробнее классификацию облаков см. в Атласе облаков (PDF).
T - Температура воздуха - температура, измеренная на высоте 2 м над землей.
Td - Температура точки росы - температура, при понижении до которой содержащийся в воздухе водяной пар достигнет насыщения.
f - Относительная влажность воздуха - влажноcть воздуха, измеренная на высоте 2 м над землей.
Te - Эффективная температура - температура, которую ощущает одетый по сезону человек в тени. Характеристика душности погоды. При расчете учитывается влияние влажности воздуха и скорости ветра на теплоощущения человека.
Tes - Эффективная температура на солнце - температура, которую ощущает человек, с поправкой на солнечный нагрев. Характеристика знойности погоды. Зависит от высоты солнца над горизонтом, облачности и скорости ветра. Ночью, в пасмурную погоду, а также при ветре 12 м/с и более поправка равна нулю.
P - Атмосферное давление - приведенное к уровню моря атмосферное давление.
Po - Атмосферное давление - измеренное на уровне метеостанции атмосферное давление.
Tmin - Минимальная температура - минимум температуры воздуха на высоте 2 м над землей.
Tmax - Максимальная температура - максимум температуры воздуха на высоте 2 м над землей.
R - Количество осадков - Количество выпавших осадков за период времени, мм. При наведении курсора мыши на число - период времени, за который выпало указанное количество осадков.
R24 - Количество осадков - Количество выпавших осадков за 24 часа, мм.
S - Снежный покров - Высота снежного покрова, см. При наведении курсора мыши на число - состояние снежного покрова и степень покрытия местности в баллах.